Kecskemet, Hungary

4:33 AM CEST on September 23, 2017 (GMT +0200)
Kecskemet

Weather History for LHKE - September, 2013

Change the Weather History Date:

Sunday, September 22, 2013

  Actual Average (LHBP) Record (LHBP)
Temperature  
Mean Temperature 55 °F -  
Max Temperature 66 °F 66 °F 86 °F (2003)
Min Temperature 44 °F 48 °F 35 °F (2007)
Degree Days  
Heating Degree Days 10    
Growing Degree Days 5 (Base 50)    
Moisture  
Dew Point 45 °F    
Average Humidity 75    
Maximum Humidity 93    
Minimum Humidity 43    
Precipitation  
Precipitation 0.00 in - - ()
Sea Level Pressure  
Sea Level Pressure 30.26 in    
Wind  
Wind Speed 3 mph ()    
Max Wind Speed 9 mph    
Max Gust Speed -    
Visibility 3.6 miles    
Events      
Averages and records for this station are not official NWS values.
T = Trace of Precipitation, MM = Missing Value Source: Averaged Metar Reports

Daily Weather History Graph

Daily Weather History Graph

Search for Another Location

Airport or City:

Trip Planner

Search our weather history database for the weather conditions in past years. The results will help you decide how hot, cold, wet, or windy it might be!

Date:

Astronomy

Sep. 22, 2013 Rise Set
Actual Time 6:27 AM CEST 6:38 PM CEST
Civil Twilight 5:57 AM CEST 7:09 PM CEST
Nautical Twilight 5:21 AM CEST 7:44 PM CEST
Astronomical Twilight 4:44 AM CEST 8:21 PM CEST
Moon 8:01 PM CEST (9/22) 9:43 AM CEST (9/22)
Length of Visible Light 13h 11m
Length of Day
12h 10m
Waning Gibbous, 90% of the Moon is Illuminated
Sep 22
Waning Gibbous
Sep 27
Last Quarter
Oct 5
New
Oct 12
First Quarter
Oct 19
Full

Hourly Weather History & Observations

Time (CEST) Temp. Windchill Dew Point Humidity Pressure Visibility Wind Dir Wind Speed Gust Speed Precip Events Conditions
12:15 AM 48.2 °F - 44.6 °F 87% 30.24 in - NW 4.5 mph - N/A   Clear
12:45 AM 48.2 °F - 46.4 °F 93% 30.24 in 5.0 mi NW 2.2 mph - N/A   Unknown
1:15 AM 48.2 °F - 46.4 °F 93% 30.27 in 3.7 mi Calm Calm - N/A   Unknown
1:45 AM 48.2 °F - 46.4 °F 93% 30.27 in 3.7 mi NW 2.2 mph - N/A   Partly Cloudy
2:15 AM 46.4 °F - 44.6 °F 93% 30.27 in 1.9 mi Calm Calm - N/A   Partly Cloudy
2:45 AM 46.4 °F 43.0 °F 44.6 °F 93% 30.27 in 2.5 mi WNW 6.7 mph - N/A   Partly Cloudy
3:15 AM 44.6 °F 42.3 °F 42.8 °F 93% 30.27 in 2.5 mi NW 4.5 mph - N/A   Partly Cloudy
3:45 AM - - - N/A% - 3.1 mi Variable 4.5 mph - N/A   Mostly Cloudy
4:15 AM 46.4 °F - 44.6 °F 93% 30.27 in 2.5 mi NW 2.2 mph - N/A   Scattered Clouds
4:45 AM 46.4 °F - 44.6 °F 93% 30.27 in 2.5 mi NW 2.2 mph - N/A   Scattered Clouds
5:15 AM 48.2 °F - 46.4 °F 93% 30.27 in 2.5 mi NW 2.2 mph - N/A   Scattered Clouds
5:39 AM 48.2 °F - 46.4 °F 93% 30.27 in 3.1 mi NNW 2.2 mph - N/A   Mostly Cloudy
5:45 AM 48.2 °F - 46.4 °F 93% 30.27 in 3.1 mi NW 4.5 mph - N/A   Mostly Cloudy
6:15 AM 48.2 °F - 46.4 °F 93% 30.27 in 2.5 mi WNW 4.5 mph - N/A   Scattered Clouds
6:45 AM 46.4 °F - 44.6 °F 93% 30.30 in 2.5 mi NW 2.2 mph - N/A   Mostly Cloudy
7:15 AM 46.4 °F - 44.6 °F 93% 30.30 in 2.5 mi NNW 2.2 mph - N/A   Scattered Clouds
7:45 AM 48.2 °F - 46.4 °F 93% 30.30 in 2.5 mi Calm Calm - N/A   Mostly Cloudy
8:15 AM 50.0 °F - 46.4 °F 87% 30.30 in 2.5 mi NW 4.5 mph - N/A   Mostly Cloudy
8:45 AM 51.8 °F - 48.2 °F 88% 30.30 in 3.7 mi WNW 2.2 mph - N/A   Unknown
9:15 AM 53.6 °F - 48.2 °F 82% 30.30 in 4.3 mi NW 4.5 mph - N/A   Unknown
9:45 AM - - - N/A% - 6.2 mi Variable 4.5 mph - N/A   Clear
10:15 AM 57.2 °F - 50.0 °F 77% 30.30 in 5.6 mi WNW 2.2 mph - N/A   Unknown
10:45 AM 59.0 °F - 48.2 °F 67% 30.30 in - Calm Calm - N/A   Clear
11:15 AM 62.6 °F - 44.6 °F 52% 30.30 in - ESE 2.2 mph - N/A   Clear
11:45 AM 60.8 °F - 46.4 °F 59% 30.30 in 6.2 mi South 2.2 mph - N/A   Scattered Clouds
12:15 PM 62.6 °F - 44.6 °F 52% 30.30 in - SE 4.5 mph - N/A   Clear
12:45 PM - - - N/A% - - Variable 4.5 mph - N/A   Clear
1:15 PM 62.6 °F - 42.8 °F 48% 30.30 in - South 2.2 mph - N/A   Clear
1:45 PM 64.4 °F - 48.2 °F 56% 30.27 in - NW 2.2 mph - N/A   Clear
2:15 PM 64.4 °F - 44.6 °F 49% 30.27 in - East 4.5 mph - N/A   Clear
2:45 PM 64.4 °F - 42.8 °F 45% 30.27 in - ESE 4.5 mph - N/A   Clear
3:15 PM 64.4 °F - 42.8 °F 45% 30.27 in - SSE 4.5 mph - N/A   Clear
3:45 PM 64.4 °F - 42.8 °F 45% 30.24 in - Calm Calm - N/A   Clear
4:15 PM 64.4 °F - 42.8 °F 45% 30.24 in - NE 2.2 mph - N/A   Clear
4:45 PM 66.2 °F - 42.8 °F 43% 30.24 in - West 2.2 mph - N/A   Clear
5:15 PM 64.4 °F - 44.6 °F 49% 30.24 in - WNW 4.5 mph - N/A   Clear
5:45 PM 62.6 °F - 44.6 °F 52% 30.24 in - West 4.5 mph - N/A   Clear
6:15 PM 60.8 °F - 44.6 °F 55% 30.21 in - NW 4.5 mph - N/A   Clear
6:45 PM 57.2 °F - 46.4 °F 67% 30.21 in - Calm Calm - N/A   Clear
7:15 PM 55.4 °F - 46.4 °F 72% 30.21 in - Calm Calm - N/A   Clear
7:45 PM 53.6 °F - 46.4 °F 77% 30.21 in - Calm Calm - N/A   Clear
8:15 PM 51.8 °F - 46.4 °F 82% 30.21 in - Calm Calm - N/A   Clear
8:45 PM 51.8 °F - 46.4 °F 82% 30.21 in - Calm Calm - N/A   Clear
9:15 PM 50.0 °F - 46.4 °F 87% 30.21 in - Calm Calm - N/A   Clear
9:45 PM - - - N/A% - 3.1 mi West 8.9 mph - N/A   Clear
10:15 PM 50.0 °F - 46.4 °F 87% 30.21 in 5.0 mi Calm Calm - N/A   Unknown
10:45 PM 50.0 °F - 44.6 °F 82% 30.21 in 5.0 mi NNW 2.2 mph - N/A   Unknown
11:15 PM 50.0 °F - 44.6 °F 82% 30.21 in 5.0 mi NW 2.2 mph - N/A   Unknown
11:45 PM 50.0 °F - 44.6 °F 82% 30.21 in 5.6 mi NW 4.5 mph - N/A   Unknown